Regional Weather Roundup
Issued by NWS Upton, NY

Current Version | Previous Version | Graphics & Text | Print | Product List | Glossary Off
Versions: 1 2 3 4 5 6 7 8 9 10 11 12 13 14 15 16 17 18 19 20 21 22 23 24 25 26 27 28 29 30 31 32 33 34 35 36 37 38 39 40 41 42 43 44 45 46 47
000 ASUS41 KOKX 241605 RWROKX REGIONAL WEATHER ROUNDUP NATIONAL WEATHER SERVICE NEW YORK NY 1100 AM EST WED DEC 24 2014 NOTE: "FAIR" INDICATES FEW OR NO CLOUDS BELOW 12,000 FEET WITH NO SIGNIFICANT WEATHER AND/OR OBSTRUCTIONS TO VISIBILITY. NYZ071-072-176-178-NJZ106-104-241700- NEW YORK CITY METRO AREA CITY SKY/WX TMP DP RH WIND PRES REMARKS CENTRAL PARK RAIN 44 43 96 MISG 29.92F FOG LAGUARDIA APRT LGT RAIN 44 43 96 NE15 29.90F VSB 1 KENNEDY INTL RAIN 50 47 89 NE12 29.91F FOG NEWARK/LIBERTY HVY RAIN 46 46 100 N9 29.89F VSB 1/4 BRNX BOT. GARD N/A 43 43 100 E12 29.90F TETERBORO LGT RAIN 45 45 100 NE7 29.88F $$ NYZ177-179-078>081-241700- LONG ISLAND NEW YORK CITY SKY/WX TMP DP RH WIND PRES REMARKS FARMINGDALE RAIN 49 48 97 E9 29.92F FOG ISLIP RAIN 49 47 93 E10 29.91F VSB 1 SHIRLEY LGT RAIN 49 48 97 VRB6 29.94F FOG WESTHAMPTON RAIN 49 48 97 E8 29.95F VSB 3/4 MONTAUK POINT N/A 49 48 97 VRB7 29.98F $$ NYZ052-065-067-241700- HUDSON VALLEY CITY SKY/WX TMP DP RH WIND PRES REMARKS WHITE PLAINS RAIN 45 44 97 E12G21 29.90F FOG NEWBURGH DRIZZLE 45 45 100 SE12 29.92F FOG MONTGOMERY LGT RAIN 45 44 97 NE7 29.89F FOG POUGHKEEPSIE CLOUDY 45 43 93 CALM 29.92F FOG ALBANY LGT RAIN 44 41 89 S8 29.90F FOG $$ NJZ001-105-106-008-010-013-015-019>022-104-241700- NEW JERSEY CITY SKY/WX TMP DP RH WIND PRES REMARKS NEWARK/LIBERTY HVY RAIN 46 46 100 N9 29.89F VSB 1/4 TETERBORO LGT RAIN 45 45 100 NE7 29.88F CALDWELL LGT RAIN 45 44 97 NE8 29.90F FOG MORRISTOWN NOT AVBL SOMERVILLE RAIN 50 47 89 VRB3 29.88F FOG SUSSEX LGT RAIN 46 44 93 NE6 29.88F FOG ANDOVER NOT AVBL TRENTON CLOUDY 49 47 93 E8 29.86F MILLVILLE LGT RAIN 57 56 96 S5 29.84F FOG ATLANTIC CITY LGT RAIN 56 56 100 S9 29.86F VSB 1/4 WRIGHTSTOWN LGT RAIN 53 53 100 E2 29.84F FOG TOMS RIVER CLOUDY 54 54 100 SE5 29.87F BELMAR CLOUDY 52 46 82 E7 29.88F $$ PAZ047>061-062-071-241700- EASTERN PENNSYLVANIA CITY SKY/WX TMP DP RH WIND PRES REMARKS PHILADELPHIA RAIN 51 49 92 NE6 29.85F FOG ALLENTOWN LGT RAIN 48 45 89 E7 29.85F FOG SCRANTON LGT RAIN 50 46 86 NE9 29.80F $$ CTZ002-004>006-009-010-012-RIZ004-006-007-MAZ004-011-015-241700- SOUTHERN NEW ENGLAND IN CT CITY SKY/WX TMP DP RH WIND PRES REMARKS BRADLEY INTL DRZL/FOG 42 40 92 N6 29.97F VSB 1 HARTFORD FOG 42 41 96 VRB3 29.98F VSB 1 DANBURY LGT RAIN 44 41 89 E7 29.94F VSB 1 WTRBRY/OXFORD FOG 43 37 81 E6 29.96F VSB 1/4 BRIDGEPORT FOG 45 44 97 E10 29.95F VSB 1 MERIDEN FOG 42 41 96 CALM 29.98F VSB 3/4 NEW HAVEN FOG 47 44 90 NE6 29.95F VSB 1 CHESTER FOG 46 46 100 NE6 29.97F VSB 1/4 GROTON CLOUDY 48 48 100 NE7 29.96F WILLIMANTIC CLOUDY 46 43 89 NE7 29.98F IN RI CITY SKY/WX TMP DP RH WIND PRES REMARKS PROVIDENCE FOG 46 45 96 N7 30.00F VSB 1/2 BLOCK ISLAND CLOUDY 46 45 93 NE8 29.98F VSB<1/4 WESTERLY LGT RAIN 49 48 97 NE8 29.98F IN MA CITY SKY/WX TMP DP RH WIND PRES REMARKS BOSTON DRZL/FOG 45 45 100 N7 30.02F VSB 1/4 WORCESTER FOG 38 38 100 NE7 29.98F VSB<1/4 WCI 33 WESTFIELD CLOUDY 41 39 93 N5 29.98F FOG PROVINCETOWN CLOUDY 50 48 93 E5 30.00F NANTUCKET LGT RAIN 49 48 97 S6 29.96F VSB 1/4 $$ ANZ330-335-338-340-345-350-353-355-241700- COASTAL MARINE OBSERVATIONS STATION/POSITION TIME SKY/WX TEMP WIND PRES VSBY WAVE AIR SEA DIR/SP/G HT/PER (UTC) (F) (DEG/KT/KT) (MB) (MI) (FT/S) NY HARB ENTRANCE 1600 50 46 70/ 12/ 14 1012.9 5/ 8 4S FIRE IS 1600 47 N/A 5/ 8 20S FIRE ISLAND 1500 52 51 1014.0 5/ 7 23SW MTP 1600 N/A 5/ 8 HUDSON CANYON 1600 57 54 140/ 14/ 16 1012.6 5/ 9 EXECUTION ROCKS 1600 43 42 50/ 16/ 19 N/A WESTERN LI SOUND 1600 44 60/ 14/ 16 N/A 2/ 4 CENTRAL LI SOUND 1500 43 44 90/ 10/ 12 N/A 1/ 2 EASTERN LI SOUND NOT AVBL ROBBINS REEF 1600 45 1011.4 $$ >>>>>>>>>>>>>>>>>>>>>>>>>>>> KEY <<<<<<<<<<<<<<<<<<<<<<<<<<< > < > SKY/WX - SKY CONDITION/PRESENT WEATHER < > TMP - TEMPERATURE IN FAHRENHEIT < > DP - DEWPOINT IN FAHRENHEIT < > RH - RELATIVE HUMIDITY IN PERCENT < > WIND - DIRECTION AND SPEED IN MPH < > PRES - MEAN SEA LEVEL PRESSURE IN INCHES OF HG < > WCI - WIND CHILL INDEX < > VSB - VISIBILITY IN MILES < > HX - HEAT INDEX < > TC - TEMPERATURE IN CELSIUS < > VRB - VARIABLE WIND DIRECTION < > < >>>>>>>>>>>>>>>>>>>>>>>>>>>> KEY <<<<<<<<<<<<<<<<<<<<<<<<<<<

USA.gov is the U.S. government's official web portal to all federal, state and local government web resources and services.